Wind_Speed
2 1 1 1 1 1 1 1 1 0 0 0 0 0 1 1 1 1 1 1 1 0 1 1 2 2 2 2 2 2 3 3 3 3 3 4 4 4 4 4 5 5 5
1 1 1 1 0 1 1 1 1 1 1 1 1 1 1 1 1 1 1 2 1 2 2 2 2 3 3 3 3 4 4 4 4 4 4 4 5 5 5 5 6 6 6
2 1 1 1 1 1 1 1 2 2 2 2 2 2 2 3 3 3 2 3 3 3 3 3 3 4 4 4 4 5 5 5 5 5 5 5 6 5 5 6 7 7 7
3 2 2 2 2 2 1 2 2 3 3 3 3 3 3 4 4 4 4 4 4 4 4 4 4 4 5 5 5 5 5 6 6 6 7 7 7 6 7 7 7 8 9
4 4 3 3 3 3 3 3 3 4 4 4 4 4 4 4 4 4 5 5 5 5 6 6 6 6 6 6 6 6 6 6 7 7 7 8 8 8 8 8 9 9 10
5 5 5 5 5 5 5 4 4 4 5 5 4 4 5 5 5 5 5 5 6 6 7 7 6 6 7 7 7 7 7 7 8 7 8 8 9 9 9 9 9 10 11
6 6 6 6 6 6 6 5 5 6 6 6 5 6 6 6 6 6 6 6 6 6 7 7 7 7 7 7 7 7 7 8 8 8 8 8 9 9 9 10 10 10 11
7 7 7 7 6 6 6 6 7 7 7 6 6 6 7 6 6 7 7 6 7 7 7 7 7 8 8 8 7 7 7 8 7 8 8 9 9 10 10 10 11 11 12
7 7 7 7 8 7 8 8 7 8 8 7 7 7 7 7 7 6 7 7 7 7 7 7 7 8 8 7 8 8 8 8 8 8 9 9 10 10 10 10 11 11 11
8 8 9 9 9 9 9 9 9 8 8 8 8 8 8 8 7 7 7 7 7 7 7 7 8 8 8 7 8 8 8 8 8 8 9 9 10 11 11 11 11 11 11
8 9 10 10 10 10 9 9 9 9 9 8 9 9 9 9 8 8 8 8 8 8 8 8 8 8 8 8 8 8 9 9 8 8 8 9 9 10 10 11 11 10 11
9 9 10 10 10 10 11 11 11 10 10 10 10 9 9 9 8 8 8 8 8 8 8 8 8 8 8 8 8 9 9 9 9 9 9 9 9 9 10 10 10 9 10
10 10 11 11 11 11 11 11 12 11 11 11 11 10 10 10 9 9 9 9 8 8 8 9 9 9 9 9 9 9 9 9 9 9 9 10 10 9 9 9 9 10 10
10 10 11 11 12 12 11 11 11 11 12 12 12 12 11 10 10 10 10 9 9 9 9 9 9 9 10 10 10 10 10 10 10 9 9 9 10 9 9 9 9 10 11
11 11 11 12 12 12 12 12 13 12 12 12 12 12 12 11 10 10 10 10 10 10 11 11 10 10 10 10 10 11 11 11 10 10 10 10 10 10 9 9 10 11 11
11 12 13 13 12 13 13 13 13 13 13 13 13 13 13 12 11 11 11 11 11 11 11 11 11 11 10 10 10 11 11 11 11 10 10 10 10 10 10 10 10 10 11
12 13 14 13 13 14 14 14 14 13 13 13 14 13 13 12 13 12 12 12 11 12 12 12 11 11 11 11 11 11 11 11 11 11 11 10 10 10 11 11 11 11 11
13 13 14 14 14 14 14 14 14 14 14 14 14 13 13 13 13 13 13 12 12 12 12 12 11 12 12 12 12 12 12 11 11 11 11 11 11 12 12 12 12 12 12
13 13 14 14 14 14 14 14 14 14 14 14 14 14 14 14 15 15 14 13 13 13 13 12 12 13 13 13 13 13 13 12 12 11 11 11 12 12 12 12 13 13 13
13 13 13 14 14 14 14 14 14 14 14 14 14 15 14 15 15 16 15 15 15 15 14 14 14 14 14 13 13 13 13 13 13 12 12 12 12 12 12 12 13 13 13
14 13 14 14 14 15 14 15 15 14 14 14 14 14 14 15 15 16 16 15 15 15 15 15 14 14 14 14 14 13 13 13 13 13 13 13 13 13 13 14 14 14 14
14 14 14 14 14 14 14 14 15 15 15 15 15 15 15 15 16 16 16 16 15 15 15 14 14 14 14 14 14 13 13 13 13 13 14 14 13 14 14 14 14 14 14
14 14 14 14 14 14 14 15 15 15 15 15 15 15 16 16 16 16 16 15 14 14 15 14 14 14 14 14 14 14 13 13 13 14 14 13 14 14 14 14 14 14 14
14 14 14 14 14 14 14 15 15 15 15 15 15 15 16 16 16 15 15 15 14 15 15 15 15 15 15 15 14 14 14 14 13 13 13 14 13 13 14 14 14 14 15
14 13 14 14 15 15 14 14 14 15 15 16 16 16 16 16 15 14 14 14 15 15 15 16 16 15 15 15 15 15 15 15 14 14 13 14 14 13 14 14 15 16 16
14 14 15 15 15 15 14 14 14 15 15 16 17 17 16 16 16 15 15 15 16 16 16 17 17 17 16 16 16 16 15 15 15 14 14 14 14 14 14 15 16 16 16
Wind_Direction
127 107 93 94 118 137 145 145 146 150 11 144 93 37 22 8 2 11 344 323 269 223 333 340 333 336 316 290 281 278 282 288 281 278 269 264 270 263 255 253 253 252 253
156 147 108 69 157 209 182 190 220 243 252 241 232 276 280 289 293 306 309 302 285 276 292 298 296 297 290 284 278 273 276 280 279 276 274 268 272 262 257 256 256 257 255
193 196 240 286 284 244 210 241 245 251 263 267 257 272 275 275 270 268 275 281 281 285 288 287 286 289 282 280 280 277 277 274 270 270 275 271 267 265 263 259 257 259 258
224 233 261 273 276 276 279 270 259 254 261 274 270 274 281 274 268 265 270 270 272 283 287 286 285 290 285 279 279 281 280 276 271 270 273 269 267 267 265 261 260 261 260
235 246 260 267 268 277 287 275 271 273 272 272 272 271 278 275 266 268 272 269 271 280 284 284 287 287 277 275 278 281 277 274 273 275 272 269 267 265 264 262 263 262 262
248 257 266 268 266 275 280 276 276 277 278 276 276 275 277 276 271 273 275 271 273 277 279 283 285 285 274 273 278 281 279 276 277 278 273 268 266 265 263 263 265 264 262
259 262 266 264 268 274 273 274 275 276 277 271 272 277 275 272 266 270 272 272 274 275 277 280 283 285 281 280 282 280 275 277 275 275 271 266 266 266 266 268 268 266 263
262 261 262 260 265 272 275 276 276 275 274 271 274 276 275 269 267 269 270 272 276 278 279 280 282 286 284 281 281 282 282 278 278 278 275 269 265 268 269 269 268 266 264
258 258 259 263 263 268 273 274 274 270 268 269 272 274 275 269 270 275 274 273 275 278 278 280 285 288 288 282 279 279 285 278 279 278 276 274 272 270 272 273 271 267 265
259 260 261 264 266 270 269 270 271 268 265 266 268 273 275 270 274 278 278 277 276 276 278 281 282 285 283 283 281 279 280 281 283 281 279 277 273 271 271 271 271 266 264
261 260 261 261 263 267 265 265 266 267 266 266 269 272 272 265 272 275 277 279 277 277 277 278 282 285 282 281 282 280 278 279 281 280 279 280 279 277 275 275 274 269 265
262 263 264 263 264 265 267 267 266 266 267 266 267 269 264 264 270 271 274 276 276 277 276 278 279 281 282 281 280 278 278 279 278 277 276 279 281 281 280 279 276 273 268
264 265 267 268 267 267 268 270 268 267 267 265 264 267 265 265 266 267 271 273 274 276 278 279 278 280 282 281 282 279 281 283 281 278 278 280 279 281 280 277 274 272 269
268 271 273 272 271 269 268 270 269 267 265 264 263 265 264 264 262 265 267 271 272 276 280 280 281 283 282 282 282 281 284 285 283 279 281 279 277 275 274 273 271 270 267
270 272 277 277 274 269 268 270 270 269 267 265 263 264 262 260 263 268 270 271 272 276 278 279 280 281 282 281 281 281 281 282 281 280 281 278 277 271 272 273 271 275 276
278 279 280 281 279 275 273 274 273 270 267 269 268 266 261 262 263 264 269 274 275 275 277 280 280 282 282 281 281 281 280 281 280 279 278 276 274 269 270 273 273 274 274
281 280 281 280 278 276 275 276 274 271 268 269 269 268 263 262 263 263 265 269 271 274 276 279 279 282 281 280 281 280 281 281 280 278 276 276 274 272 273 275 276 275 274
283 282 281 279 278 276 275 275 272 271 271 270 269 267 263 261 261 262 262 265 269 273 275 275 274 277 279 279 279 279 279 279 278 278 277 276 274 273 272 273 273 274 274
284 285 283 281 279 277 275 274 273 272 272 270 267 266 263 261 262 260 262 264 267 272 276 275 276 275 277 279 280 278 278 277 277 278 278 277 276 274 273 274 274 273 273
285 285 284 283 280 278 276 276 273 273 273 269 268 267 266 263 263 259 261 265 267 269 270 274 277 274 275 279 279 279 276 276 279 279 279 277 275 274 273 273 276 275 274
285 285 285 283 281 280 278 277 275 273 273 271 272 271 268 262 261 260 260 266 267 266 267 271 273 274 275 276 277 277 276 277 279 279 278 277 274 271 271 272 274 275 274
286 286 285 284 281 279 278 277 276 273 272 273 273 272 269 266 264 264 262 263 264 264 268 270 271 272 273 274 275 275 276 277 279 281 280 277 275 274 273 273 275 275 275
288 287 285 284 283 283 281 279 278 274 274 274 273 271 270 267 269 267 264 264 264 265 267 269 270 270 271 273 273 275 275 277 279 281 282 281 278 276 273 274 276 275 276
288 286 285 285 285 285 284 282 280 277 276 275 273 271 271 270 269 264 260 261 264 266 267 268 269 269 269 272 272 273 274 275 278 280 282 281 280 277 274 274 275 277 276
290 287 286 285 286 286 285 283 280 277 277 277 273 271 271 269 266 264 263 264 263 264 265 268 268 269 269 269 273 275 273 274 276 279 282 282 280 277 276 275 274 276 277
289 285 285 285 286 286 284 284 282 279 279 277 273 270 268 266 266 266 266 267 266 266 266 269 269 268 269 269 272 274 274 275 275 277 279 280 279 276 276 276 277 278 280
Height
5893 5892 5892 5891 5891 5891 5891 5891 5891 5890 5890 5890 5889 5889 5889 5888 5888 5887 5887 5886 5886 5886 5886 5885 5885 5884 5884 5884 5883 5883 5882 5882 5881 5881 5881 5880 5880 5880 5879 5879 5879 5879 5878
5893 5892 5892 5891 5891 5890 5890 5890 5890 5890 5889 5889 5889 5888 5888 5888 5887 5887 5886 5886 5886 5886 5885 5885 5884 5884 5883 5883 5883 5882 5882 5881 5881 5880 5880 5879 5879 5879 5878 5878 5878 5878 5878
5892 5892 5892 5891 5891 5890 5890 5890 5890 5889 5889 5888 5888 5888 5887 5887 5886 5886 5886 5886 5885 5885 5884 5884 5883 5883 5882 5882 5882 5881 5880 5880 5880 5879 5879 5878 5878 5878 5878 5877 5877 5877 5877
5892 5892 5891 5891 5890 5890 5889 5889 5889 5889 5888 5887 5887 5887 5886 5886 5885 5885 5885 5885 5884 5884 5883 5883 5882 5882 5881 5881 5880 5880 5879 5879 5879 5878 5877 5877 5877 5877 5876 5876 5876 5876 5875
5891 5891 5891 5890 5890 5889 5888 5888 5888 5888 5887 5887 5886 5886 5885 5885 5884 5884 5884 5883 5883 5883 5882 5882 5881 5881 5880 5880 5879 5879 5878 5878 5877 5876 5876 5875 5875 5875 5875 5875 5874 5874 5874
5890 5890 5889 5889 5889 5888 5888 5887 5887 5886 5886 5886 5885 5885 5884 5883 5883 5883 5882 5882 5882 5881 5881 5880 5880 5879 5879 5878 5878 5877 5877 5876 5875 5875 5874 5874 5873 5873 5873 5873 5872 5872 5872
5889 5889 5888 5888 5888 5887 5887 5886 5886 5885 5885 5884 5884 5883 5883 5882 5882 5881 5881 5881 5880 5880 5879 5879 5878 5878 5877 5876 5876 5876 5875 5875 5874 5873 5872 5872 5872 5871 5871 5871 5870 5870 5869
5888 5887 5887 5887 5887 5886 5886 5885 5885 5884 5883 5883 5882 5882 5881 5881 5880 5880 5879 5879 5879 5878 5878 5877 5877 5876 5875 5875 5874 5874 5873 5873 5872 5871 5871 5870 5870 5869 5869 5869 5868 5868 5867
5886 5886 5886 5886 5885 5885 5884 5884 5883 5883 5882 5881 5881 5880 5880 5879 5879 5878 5878 5877 5877 5877 5876 5875 5875 5874 5874 5873 5873 5872 5872 5871 5871 5870 5869 5868 5868 5867 5867 5866 5866 5865 5865
5885 5884 5884 5884 5884 5883 5882 5882 5881 5881 5880 5880 5879 5879 5878 5877 5877 5876 5876 5876 5875 5875 5874 5874 5873 5873 5872 5871 5871 5870 5870 5869 5869 5868 5867 5866 5866 5865 5864 5864 5863 5863 5862
5883 5883 5882 5882 5882 5881 5880 5880 5879 5879 5878 5878 5877 5877 5876 5875 5875 5875 5874 5874 5874 5873 5873 5872 5872 5871 5870 5870 5869 5868 5868 5867 5867 5866 5865 5864 5864 5863 5862 5862 5861 5860 5860
5881 5881 5880 5880 5879 5879 5878 5877 5877 5877 5876 5876 5875 5875 5874 5873 5873 5873 5873 5872 5872 5871 5871 5870 5870 5869 5868 5868 5867 5866 5866 5865 5864 5864 5863 5862 5861 5861 5860 5859 5859 5858 5857
5879 5879 5878 5878 5877 5876 5876 5875 5875 5874 5874 5874 5873 5873 5872 5872 5872 5871 5871 5870 5870 5870 5869 5869 5868 5867 5867 5866 5865 5864 5864 5863 5862 5862 5861 5860 5859 5859 5858 5857 5856 5856 5855
5877 5876 5876 5875 5875 5874 5874 5873 5873 5872 5872 5871 5871 5870 5870 5870 5870 5869 5869 5868 5868 5867 5867 5866 5866 5865 5864 5864 5863 5862 5862 5861 5860 5859 5859 5858 5857 5856 5856 5855 5854 5853 5853
5874 5874 5873 5873 5872 5872 5871 5871 5870 5870 5869 5869 5869 5868 5868 5867 5867 5867 5867 5866 5866 5865 5865 5864 5864 5863 5862 5862 5861 5860 5860 5859 5858 5857 5856 5855 5854 5854 5853 5852 5851 5851 5850
5872 5872 5871 5870 5869 5869 5868 5868 5867 5867 5866 5866 5866 5866 5865 5865 5865 5865 5864 5864 5863 5863 5862 5862 5861 5861 5860 5859 5859 5858 5857 5856 5855 5854 5854 5853 5852 5851 5851 5850 5849 5849 5848
5870 5869 5868 5867 5867 5866 5865 5865 5865 5864 5864 5863 5863 5863 5862 5862 5862 5862 5862 5861 5860 5860 5860 5859 5858 5858 5857 5857 5856 5855 5855 5854 5853 5852 5851 5850 5850 5849 5848 5847 5847 5846 5845
5867 5866 5865 5865 5864 5863 5862 5862 5861 5861 5861 5860 5860 5859 5859 5859 5859 5859 5859 5858 5858 5857 5857 5856 5856 5855 5855 5854 5853 5853 5852 5851 5850 5849 5848 5848 5847 5846 5846 5845 5845 5844 5843
5864 5863 5862 5862 5861 5860 5859 5859 5858 5858 5857 5857 5856 5856 5856 5856 5856 5856 5856 5855 5855 5854 5854 5853 5853 5852 5852 5851 5851 5850 5849 5848 5847 5847 5846 5845 5844 5844 5843 5842 5842 5841 5840
5861 5860 5859 5858 5857 5856 5856 5855 5855 5854 5854 5853 5853 5852 5852 5852 5852 5852 5852 5852 5851 5851 5851 5850 5850 5849 5849 5848 5848 5847 5846 5845 5844 5844 5843 5842 5841 5841 5840 5839 5839 5838 5837
5858 5857 5856 5855 5854 5853 5853 5852 5851 5851 5850 5850 5849 5849 5848 5848 5848 5848 5848 5848 5848 5848 5847 5847 5846 5846 5845 5845 5844 5844 5843 5842 5841 5840 5840 5839 5838 5838 5837 5836 5836 5835 5834
5854 5854 5853 5852 5851 5850 5849 5848 5848 5847 5846 5846 5846 5845 5845 5844 5844 5844 5844 5844 5844 5844 5844 5843 5843 5842 5842 5841 5841 5840 5840 5840 5838 5837 5836 5836 5835 5834 5834 5833 5832 5831 5831
5851 5850 5849 5848 5848 5847 5846 5845 5844 5843 5842 5842 5842 5841 5841 5841 5840 5840 5840 5840 5840 5840 5840 5839 5839 5839 5838 5838 5837 5837 5837 5836 5835 5834 5833 5832 5831 5831 5830 5829 5829 5828 5827
5848 5847 5845 5844 5844 5843 5842 5841 5840 5840 5839 5838 5838 5838 5837 5837 5837 5836 5836 5836 5836 5836 5836 5836 5835 5835 5835 5834 5833 5833 5833 5832 5832 5831 5830 5829 5828 5827 5826 5826 5825 5824 5823
5845 5843 5842 5841 5840 5839 5838 5837 5836 5836 5835 5834 5834 5834 5833 5833 5833 5832 5832 5832 5832 5832 5832 5832 5831 5831 5831 5830 5830 5829 5829 5828 5828 5827 5826 5826 5824 5824 5823 5822 5821 5820 5820
5841 5840 5839 5837 5836 5835 5834 5833 5832 5832 5831 5830 5830 5829 5829 5829 5829 5828 5828 5828 5828 5828 5828 5827 5827 5827 5826 5826 5826 5825 5825 5824 5823 5823 5823 5822 5821 5820 5819 5818 5817 5816 5815